Regional Weather Roundup
Issued by NWS

Home | Current Version | Previous Version | Graphics & Text | Print | Product List | Glossary Off
Versions: 1 2 3 4 5 6 7 8 9 10 11 12 13 14 15 16 17 18 19 20 21 22 23 24 25 26 27 28 29 30 31 32 33 34 35 36 37 38 39 40 41 42 43 44 45 46 47 48 49 50

000
ASUS43 KMPX 250910
RWRMN
WEATHER ROUNDUP FOR MINNESOTA
NATIONAL WEATHER SERVICE TWIN CITIES/CHANHASSEN MN
400 AM CDT FRI APR 25 2014


NOTE: "FAIR" INDICATES FEW OR NO CLOUDS BELOW 12,000 FEET WITH NO
SIGNIFICANT WEATHER AND/OR OBSTRUCTIONS TO VISIBILITY. N/A MEANS
CURRENT SKY AND/OR WEATHER CONDITIONS ARE NOT AVAILABLE.

MNZ060>063-068>070-251000-
   Twin Cities Metro

CITY           SKY/WX    TMP DP  RH WIND       PRES   REMARKS
TWIN CITIES    PTCLDY    37  37 100 S3        29.72S FOG
ST PAUL        FOG       34  33  96 CALM      29.73S VSB 1/2
CRYSTAL        CLEAR     39  36  89 W5        29.70S
BLAINE         FOG       34  34 100 CALM      29.71S VSB 1/4
EDEN PRAIRIE   FOG       37  35  92 SW3       29.71S VSB 1/2
LAKEVILLE      CLEAR     36  36 100 CALM      29.73R FOG
SOUTH ST PAUL  FOG       36  35  96 CALM      29.72S VSB 1/2
LAKE ELMO      FOG       30  30 100 CALM      29.73R VSB 1/2
$$
MNZ001>005-007-008-013>017-022>024-027-028-251000-
   Northwest Minnesota

CITY           SKY/WX    TMP DP  RH WIND       PRES   REMARKS
BEMIDJI        LGT SNOW  32  32 100 W5        29.67S WCI  27
HALLOCK        CLOUDY    34  32  93 CALM      29.74S
ROSEAU         LGT SNOW  34  28  80 N3        29.73R
WARROAD        LGT SNOW  32  28  86 N3        29.73R
THIEF RVR FALL CLOUDY    34  30  86 N5        29.72S WCI  30
CROOKSTON      FOG       36  36 100 N6        29.74S VSB 3/4
FOSSTON        CLOUDY    32  32 100 CALM      29.71R
DETROIT LAKES  FOG       37  37 100 NW8       29.71R VSB 1
MOORHEAD       CLOUDY    41  41 100 W3        29.74R FOG
PARK RAPIDS    FOG       33  33 100 W3        29.68R VSB 3/4
$$
MNZ006-009>011-018-025>026-251000-
   North Central Minnesota

CITY           SKY/WX    TMP DP  RH WIND       PRES   REMARKS
BAUDETTE       LGT SNOW  33  32  96 N6        29.70R FOG     WCI  28
FLAG ISLAND    LGT SNOW  32  30  93 NE7       29.72S WCI  26
INTL FALLS     LGT SNOW  33  32  96 NE5       29.67S FOG     WCI  29
WASKISH        LGT SNOW  32  32 100 CALM      29.68S
LONGVILLE      CLOUDY    34  34 100 W5        29.66F FOG     WCI  30
GRAND RAPIDS   CLOUDY    32  30  93 CALM      29.65S
CRANE LAKE     SNOW      30  30 100 CALM      29.68F VSB 1/2
ORR            LGT SNOW  32  30  93 CALM      29.63S
COOK           LGT SNOW  32  30  93 CALM      29.65S
$$
MNZ012-019>021-037-251000-
   Northeast Minnesota

CITY           SKY/WX    TMP DP  RH WIND       PRES   REMARKS
DULUTH         LGT SNOW  32  30  92 W8        29.64F FOG     WCI  25
ELY            LGT SNOW  30  30 100 CALM      29.64S
HIBBING        LGT SNOW  33  31  92 CALM      29.64S FOG
EVELETH        LGT SNOW  32  32 100 CALM      29.65F
DULUTH HARBOR  CLOUDY    34  30  86 CALM      29.69F
TWO HARBORS    MIX PCPN  30  27  86 CALM      29.64S
SILVER BAY     LGT SNOW  30  30 100 CALM      29.63S
GRAND MARAIS     N/A     33  31  92 NE20G26   29.69F WCI  21
G MARAIS ARPRT LGT SNOW  28  27  93 E17       29.64F WCI  16
$$
MNZ029>031-032-039>041-046>048-054>057-064-251000-
   West Central Minnesota

CITY           SKY/WX    TMP DP  RH WIND       PRES   REMARKS
FERGUS FALLS   FOG       34  34 100 NW7       29.71R VSB<1/4 WCI  28
WHEATON        PTCLDY    39  37  93 W7        29.76R
MORRIS         CLEAR     36  34  93 W8        29.73R
ALEXANDRIA     CLEAR     37  35  92 W7        29.71S
ELBOW LAKE     MOCLDY    33  33  99 W8        29.72S WCI  26
WADENA         FOG       36  34  93 W6        29.69S VSB 1/4
GLENWOOD       CLEAR     36  36 100 W7        29.72S
APPLETON       PTCLDY    36  34  93 W8        29.74R
BENSON         CLEAR     32  32 100 N5        29.72S FOG     WCI  27
ORTONVILLE     MOCLDY    41  36  81 W7        29.74R
MADISON        PTCLDY    43  39  87 W7        29.74R
WILLMAR        FAIR      37  36  93 W3        29.73S
$$
MNZ033>034-036-042>043-049>051-058-059-251000-
   Central Minnesota

CITY           SKY/WX    TMP DP  RH WIND       PRES   REMARKS
ST CLOUD       FOG       34  30  86 CALM      29.71S VSB 1/2
SAUK CENTRE    FAIR      34  34  99 SW3       29.70F
PAYNESVILLE    FOG       32  32  99 CALM      29.72F VSB 1/4
AITKIN         CLOUDY    37  32  81 SW5       29.65F
PINE RIVER     CLOUDY    34  34 100 CALM      29.71S
BRAINERD       HAZE      40  35  83 W6        29.68F VSB 1/2
STAPLES        FOG       34  34 100 CALM      29.69S VSB 1/2
LONG PRAIRIE   FAIR      34  32  93 CALM      29.70S
LITTLE FALLS   FOG       30  30 100 CALM      29.70S VSB 1/4
LITCHFIELD     CLEAR     39  39 100 CALM      29.72S
BUFFALO        CLEAR     38  36  93 SW3       29.72S
MAPLE LAKE     CLEAR     40  39  97 W3        29.72F
$$
MNZ037-044-045-052-053-251000-
   East Central Minnesota

CITY           SKY/WX    TMP DP  RH WIND       PRES   REMARKS
PRINCETON      FOG       34  32  93 SW3       29.71F VSB 1/4
MORA           FOG       36  34  93 SW5       29.71S VSB 1
CAMBRIDGE      CLEAR     37  32  81 S5        29.69S HAZE
RUSH CITY        N/A     35  33  95 CALM      29.70F FOG
MOOSE LAKE     CLOUDY    32  32 100 CALM      29.65F FOG
HINCKLEY       CLOUDY    37  37 100 W3        29.69R FOG
CLOQUET        SNOW      34  32  93 CALM      29.66S VSB 1/2
MCGREGOR       CLOUDY    34  34 100 W3        29.66F
$$
MNZ071>073-080-081-089-090-097-098-251000-
   Southwest Minnesota

CITY           SKY/WX    TMP DP  RH WIND       PRES   REMARKS
MONTEVIDEO     CLEAR     39  39 100 NW3       29.74R
GRANITE FALLS  CLEAR     38  35  87 W10       29.74R
CANBY          PTCLDY    43  37  80 W9        29.75R
MARSHALL       CLEAR     43  34  70 W14       29.73R
REDWOOD FALLS  PTCLDY    42  38  85 W9        29.72R
OLIVIA         PTCLDY    37  36  93 W8        29.71S
PIPESTONE      PTCLDY    39  32  75 W5        29.76R
WINDOM         CLEAR     39  37  93 SW7       29.74S
WORTHINGTON    CLEAR     39  32  75 SW10      29.77S
JACKSON        CLEAR     43  37  81 SW8       29.75S
TRACY          CLEAR     42  37  81 SW9       29.74R
SLAYTON        CLEAR     44  33  66 W13       29.75S
$$
MNZ065>067-074>077-082>085-091>093-251000-
   South Central Minnesota

CITY           SKY/WX    TMP DP  RH WIND       PRES   REMARKS
MANKATO        CLEAR     43  37  81 CALM      29.74R
NEW ULM        CLEAR     39  39 100 SW6       29.72S
ST JAMES       CLEAR     39  36  87 SW5       29.74S
FAIRMONT       CLEAR     43  37  81 SW10      29.75F
GLENCOE        FOG       35  33  91 CALM      29.72S VSB 1/2
FARIBAULT      FOG       36  32  87 S3        29.73S VSB 1/4
OWATONNA       CLEAR     37  36  93 S6        29.74R FOG
WASECA         FOG       34  32  93 CALM      29.75S VSB 1/4
ALBERT LEA     CLEAR     37  37 100 CALM      29.74S FOG
$$
MNZ078>079-086>088-094>096-251000-
   Southeast Minnesota

CITY           SKY/WX    TMP DP  RH WIND       PRES   REMARKS
ROCHESTER      LGT RAIN  34  32  92 SW7       29.73S VSB 1/4 WCI  28
RED WING       CLEAR     34  32  93 CALM      29.72R FOG
STANTON        CLEAR     36  34  93 SW6       29.72R FOG
DODGE CENTER   FOG       37  37 100 SW8       29.73S VSB 1/4
WINONA         CLEAR     37  37 100 CALM      29.74S FOG
AUSTIN         FOG       34  34 100 CALM      29.74S VSB 1/4
PRESTON        CLEAR     37  36  96 SW6       29.75R
$$
ABBREVIATIONS USED IN REMARKS
   TC - TEMPERATURES IN CELSIUS
  WCI - WIND CHILL INDEX
   HX - HEAT INDEX
  VSB - VISIBILITY
$$


USA.gov is the U.S. government's official web portal to all federal, state and local government web resources and services.